Regional Weather Roundup
Issued by NWS Little Rock, AR

Home | Current Version | Previous Version | Graphics & Text | Print | Product List | Glossary On
Versions: 1 2 3 4 5 6 7 8 9 10 11 12 13 14 15 16 17 18 19 20 21 22 23 24 25 26 27 28 29 30 31 32
000
ASUS44 KLZK 241205
RWRLZK

WEATHER ROUNDUP FOR ARKANSAS
NATIONAL WEATHER SERVICE LITTLE ROCK AR
700 AM CDT SAT SEP 24 2016

NOTE: "FAIR" INDICATES FEW OR NO CLOUDS BELOW 12,000 FEET WITH NO
SIGNIFICANT WEATHER AND/OR OBSTRUCTIONS TO VISIBILITY.

ARZ001-003-010-029-241300-
NORTHWEST ARKANSAS

CITY           SKY/WX    TMP DP  RH WIND       PRES   REMARKS
FAYETTEVILLE   CLEAR     63  63 100 CALM      30.08R
6HR MIN TEMP:  63; 6HR MAX TEMP:  67;

FORT SMITH     MOCLDY    72  68  87 E3        30.04R
6HR MIN TEMP:  71; 6HR MAX TEMP:  75;

HARRISON       CLEAR     65  65 100 SE3       30.11R
6HR MIN TEMP:  65; 6HR MAX TEMP:  68;

BENTONVILLE    MOCLDY    70  64  83 CALM      30.08R
6HR MIN TEMP:  70; 6HR MAX TEMP:  73;

ROGERS         CLEAR     70  68  93 SE8       30.08S
6HR MIN TEMP:  70; 6HR MAX TEMP:  72;

SILOAM SPGS    CLEAR    N/A N/A N/A E3          N/A
HIGHFILL       PTCLDY    70  68  93 CALM      30.07R
6HR MIN TEMP:  68; 6HR MAX TEMP:  74;

SPRINGDALE     CLEAR     72  68  88 SE3       30.09R
$$

ARZ004-005-016-241300-
NORTH CENTRAL ARKANSAS

CITY           SKY/WX    TMP DP  RH WIND       PRES   REMARKS
BATESVILLE     CLEAR     66  64  94 CALM      30.09R
6HR MIN TEMP:  66; 6HR MAX TEMP:  70;

FLIPPIN        CLEAR     64  61  88 CALM      30.08R
6HR MIN TEMP:  64; 6HR MAX TEMP:  68;

MTN HOME       CLEAR     67  66  97 CALM      30.10R FOG
6HR MIN TEMP:  67; 6HR MAX TEMP:  71;

$$

ARZ040-041-241300-
WEST CENTRAL ARKANSAS

CITY           SKY/WX    TMP DP  RH WIND       PRES   REMARKS
MENA           CLEAR     70  68  94 CALM      30.09R
MOUNT IDA      CLEAR     68  66  93 CALM      30.06R FOG
6HR MIN TEMP:  68; 6HR MAX TEMP:  71;

$$

ARZ009-017-025-026-028-241300-
NORTHEAST ARKANSAS

CITY           SKY/WX    TMP DP  RH WIND       PRES   REMARKS
CORNING          N/A     68  68 100 N3        30.09R
JONESBORO      CLEAR     69  66  90 CALM      30.07R
6HR MIN TEMP:  68; 6HR MAX TEMP:  71;

NEWPORT        CLEAR     70  68  93 W3        30.08R
6HR MIN TEMP:  68; 6HR MAX TEMP:  72;

WALNUT RIDGE   CLEAR     68  64  88 N5        30.07R
6HR MIN TEMP:  68; 6HR MAX TEMP:  72;

BLYTHEVILLE    PTCLDY    70  68  93 CALM      30.08R
6HR MIN TEMP:  69; 6HR MAX TEMP:  73;

$$

ARZ022-023-033-042-044-241300-
CENTRAL ARKANSAS

CITY           SKY/WX    TMP DP  RH WIND       PRES   REMARKS
LITTLE ROCK    CLEAR     73  70  90 CALM      30.07R
6HR MIN TEMP:  73; 6HR MAX TEMP:  76;

N LITTLE ROCK    N/A     72  69  90 CALM      30.04R
6HR MIN TEMP:  72; 6HR MAX TEMP:  76;

JACKSONVILLE   PTCLDY    69  69  99 CALM      30.07R
6HR MIN TEMP:  68; 6HR MAX TEMP:  72;

SEARCY         CLEAR     68  68 100 CALM      30.09R FOG
6HR MIN TEMP:  68; 6HR MAX TEMP:  71;

HOT SPRINGS    CLEAR     71  68  90 CALM      30.07R
6HR MIN TEMP:  71; 6HR MAX TEMP:  75;

RUSSELLVILLE   CLEAR     69  68  96 CALM      30.06R
6HR MIN TEMP:  69; 6HR MAX TEMP:  72;

$$

ARZ036-241300-
EAST ARKANSAS

CITY           SKY/WX    TMP DP  RH WIND       PRES   REMARKS
WEST MEMPHIS   CLEAR     68  67  96 CALM      30.06R FOG
6HR MIN TEMP:  67; 6HR MAX TEMP:  71;

$$

ARZ050-053-066-070-073-241300-
SOUTHWEST ARKANSAS

CITY           SKY/WX    TMP DP  RH WIND       PRES   REMARKS
ARKADELPHIA    FAIR      67  67 100 CALM      30.07R
6HR MIN TEMP:  66; 6HR MAX TEMP:  71;

TEXARKANA      CLEAR     73  71  93 S3        30.06R
6HR MIN TEMP:  72; 6HR MAX TEMP:  79;

EL DORADO      CLEAR     68  68 100 CALM      30.06S
6HR MIN TEMP:  67; 6HR MAX TEMP:  72;

DE QUEEN       FOG       69  69 100 NE3       30.04R VSB 1/2
6HR MIN TEMP:  69; 6HR MAX TEMP:  74;

$$

ARZ056-057-069-241300-
SOUTHEAST ARKANSAS

CITY           SKY/WX    TMP DP  RH WIND       PRES   REMARKS
PINE BLUFF     CLEAR     69  68  96 CALM      30.07R FOG
6HR MIN TEMP:  68; 6HR MAX TEMP:  73;

STUTTGART      CLEAR     73  68  83 CALM      30.08R
6HR MIN TEMP:  73; 6HR MAX TEMP:  75;

MONTICELLO     CLEAR     71  69  93 CALM      30.07R
6HR MIN TEMP:  71; 6HR MAX TEMP:  74;


$$






USA.gov is the U.S. government's official web portal to all federal, state and local government web resources and services.